This demonstration page uses our WeatherBlox Daily Observations layout. Learn more.

Left ArrowRight Arrow

39.29038, -76.61219

Hourly Observations for September 16, 2020

Temp ( °F °C ) Dew Point ( °F °C ) Humidity (%) Winds ( mph kmh ) Pressure ( in mb ) Visibility ( mi km ) Precip ( " mm )
12:54 am 00:54 Mostly Cloudy 52 11.1 49 9.4 89 89 Calm 30.27 1025 10 16 0.00 0.00
1:54 am 01:54 Mostly Cloudy 50 10 47 8.3 89 89 Calm 30.26 1025 10 16 0.00 0.00
2:54 am 02:54 Mostly Cloudy 50 10 47 8.3 89 89 Calm 30.25 1024 10 16 0.00 0.00
3:54 am 03:54 Mostly Cloudy 49 9.4 46 7.8 90 90 W 3 6 30.24 1024 10 16 0.00 0.00
4:54 am 04:54 Mostly Cloudy 50 10 47 8.3 89 89 Calm 30.24 1024 10 16 0.00 0.00
5:54 am 05:54 Mostly Cloudy 49 9.4 46 7.8 90 90 Calm 30.23 1024 10 16 0.00 0.00
6:54 am 06:54 Mostly Cloudy 49 9.4 46 7.8 90 90 Calm 30.24 1024 10 16 0.00 0.00
7:54 am 07:54 Mostly Cloudy 51 10.6 48 8.9 89 89 Calm 30.24 1024 10 16 0.00 0.00
8:54 am 08:54 Mostly Cloudy 57 13.9 52 11.1 83 83 Calm 30.24 1024 10 16 0.00 0.00
9:54 am 09:54 Mostly Cloudy 64 17.8 54 12.2 70 70 Calm 30.24 1024 10 16 0.00 0.00
10:54 am 10:54 Mostly Cloudy 68 20 54 12.2 61 61 SSE 8 13 30.24 1024 10 16 0.00 0.00
11:54 am 11:54 Mostly Cloudy 70 21.1 54 12.2 57 57 SW 8 13 30.22 1023 10 16 0.00 0.00
12:54 pm 12:54 Mostly Cloudy 72 22.2 55 12.8 55 55 VRB 5 7 30.21 1023 10 16 0.00 0.00
1:54 pm 13:54 Mostly Cloudy 73 22.8 53 11.7 50 50 VRB 5 7 30.18 1022 10 16 0.00 0.00
2:54 pm 14:54 Mostly Cloudy 73 22.8 54 12.2 51 51 S 8 13 30.16 1021 10 16 0.00 0.00
3:54 pm 15:54 Mostly Cloudy 73 22.8 53 11.7 50 50 SSW 8 13 30.14 1021 10 16 0.00 0.00
4:54 pm 16:54 Mostly Cloudy 73 22.8 54 12.2 51 51 SW 6 9 30.13 1020 10 16 0.00 0.00
5:54 pm 17:54 Mostly Cloudy 71 21.7 56 13.3 59 59 SSE 6 9 30.12 1020 10 16 0.00 0.00
6:54 pm 18:54 Mostly Cloudy 68 20 57 13.9 68 68 SSE 3 6 30.12 1020 10 16 0.00 0.00
7:54 pm 19:54 Mostly Cloudy 66 18.9 58 14.4 75 75 Calm 30.11 1020 10 16 0.00 0.00
8:54 pm 20:54 Partly Cloudy 66 18.9 59 15 78 78 S 3 6 30.12 1020 10 16 0.00 0.00
9:54 pm 21:54 Partly Cloudy 62 16.7 58 14.4 86 86 Calm 30.13 1020 10 16 0.00 0.00
10:54 pm 22:54 Mostly Cloudy 61 16.1 58 14.4 90 90 W 3 6 30.13 1020 10 16 0.00 0.00
11:54 pm 23:54 Mostly Cloudy 61 16.1 58 14.4 90 90 WSW 3 6 30.11 1020 10 16 0.00 0.00

Powered by AerisWeather